This is the latest recevied weather packets stored in our database for station/object KC8RFE-1. If no packets are shown the sender has not sent any weather packets the latest 1 day(s).
| Time | Temp. | Humidity | Pressure | Rain* | Wind** | Luminosity | Snow |
|---|---|---|---|---|---|---|---|
| 1778013210 | 11.11° C | 7% | - | 0 mm | 0.89 m/s, 292° | - | - |
| 1778012910 | 11.11° C | 7% | - | 0 mm | 0.45 m/s, 298° | - | - |
| 1778012610 | 11.11° C | 7% | - | 0 mm | 0.45 m/s, 267° | - | - |
| 1778012310 | 11.11° C | 7% | - | 0 mm | 0.45 m/s, 305° | - | - |
| 1778012010 | 10.56° C | 6% | - | 0 mm | 0.45 m/s, 306° | - | - |
| 1778011710 | 10.56° C | 6% | - | 0 mm | 0.45 m/s, 272° | - | - |
| 1778011410 | 10.56° C | 6% | - | 0 mm | 0.89 m/s, 273° | - | - |
| 1778011109 | 10.56° C | 6% | - | 0 mm | 0.89 m/s, 279° | - | - |
| 1778010809 | 10.56° C | 6% | - | 0 mm | 0.89 m/s, 257° | - | - |
| 1778010509 | 10.56° C | 6% | - | 0 mm | 0.45 m/s, 269° | - | - |
| 1778010209 | 10.56° C | 6% | - | 0 mm | 1.34 m/s, 280° | - | - |
| 1778009909 | 11.11° C | 6% | - | 0 mm | 1.34 m/s, 250° | - | - |
| 1778009609 | 11.11° C | 6% | - | 0 mm | 1.34 m/s, 262° | - | - |
| 1778009309 | 11.11° C | 6% | - | 0 mm | 0.89 m/s, 260° | - | - |
| 1778009009 | 11.11° C | 7% | - | 0 mm | 0.89 m/s, 299° | - | - |
| 1778008709 | 11.11° C | 6% | - | 0 mm | 0.89 m/s, 281° | - | - |
| 1778008409 | 11.11° C | 6% | - | 0 mm | 0.89 m/s, 276° | - | - |
| 1778008109 | 11.11° C | 6% | - | 0 mm | 0.89 m/s, 297° | - | - |
| 1778007809 | 11.11° C | 6% | - | 0 mm | 0.89 m/s, 268° | - | - |
| 1778007509 | 11.11° C | 6% | - | 0 mm | 1.34 m/s, 256° | - | - |
| 1778007209 | 11.11° C | 6% | - | 0 mm | 0.89 m/s, 280° | - | - |
| 1778006909 | 11.11° C | 6% | - | 0 mm | 1.34 m/s, 259° | - | - |
| 1778006609 | 11.11° C | 6% | - | 0 mm | 1.34 m/s, 255° | - | - |
| 1778006309 | 11.11° C | 6% | - | 0 mm | 0.89 m/s, 284° | - | - |
| 1778006009 | 11.11° C | 6% | - | 0 mm | 1.34 m/s, 299° | - | - |
* Rain latest hour (hover to see other rain measurements)
** Current wind speed in m/s (hover to see current wind gust speed)